| time (UTC) | temp F | wind direction | speed MPH | gust MPH | rain 1hr in | rain 24hr in | rain mn in | humidity % | barometer mb |
| 20260505052643 | 69 | 276 | 2.0 | 2.0 | 0.00 | 0.00 | 0.00 | 85 | 1011.4 |
| 20260505052140 | 69 | 290 | 0.0 | 3.0 | 0.00 | 0.00 | 0.00 | 84 | 1011.5 |
| 20260505051637 | 69 | 215 | 3.0 | 3.0 | 0.00 | 0.00 | 0.00 | 85 | 1011.7 |
| 20260505051136 | 69 | 187 | 3.0 | 4.0 | 0.00 | 0.00 | 0.00 | 84 | 1011.5 |
| 20260505050633 | 70 | 214 | 3.0 | 3.0 | 0.00 | 0.00 | 0.00 | 84 | 1011.5 |
| 20260505050131 | 70 | 159 | 0.0 | 2.0 | 0.00 | 0.00 | 0.00 | 84 | 1011.7 |
| 20260505041601 | 70 | 226 | 4.0 | 4.0 | 0.00 | 0.00 | 0.00 | 83 | 1011.7 |
| 20260505041059 | 70 | 139 | 2.0 | 6.0 | 0.00 | 0.00 | 0.00 | 83 | 1011.9 |
| 20260505040556 | 70 | 232 | 2.0 | 3.0 | 0.00 | 0.00 | 0.00 | 82 | 1012.1 |
| 20260505040053 | 70 | 216 | 2.0 | 5.0 | 0.00 | 0.00 | 0.00 | 82 | 1012.2 |
| 20260505035549 | 70 | 222 | 3.0 | 4.0 | 0.00 | 0.00 | 0.00 | 82 | 1012.0 |
| 20260505035046 | 70 | 208 | 4.0 | 4.0 | 0.00 | 0.00 | 0.00 | 82 | 1012.3 |
| 20260505034542 | 70 | 212 | 2.0 | 4.0 | 0.00 | 0.00 | 0.00 | 82 | 1012.1 |
| 20260505034039 | 70 | 283 | 2.0 | 5.0 | 0.00 | 0.00 | 0.00 | 82 | 1012.2 |
| 20260505033536 | 70 | 236 | 2.0 | 4.0 | 0.00 | 0.00 | 0.00 | 82 | 1012.2 |
| 20260505033034 | 70 | 271 | 2.0 | 4.0 | 0.00 | 0.00 | 0.00 | 82 | 1012.2 |
| 20260505032532 | 70 | 212 | 4.0 | 6.0 | 0.00 | 0.00 | 0.00 | 81 | 1011.9 |
| 20260505032028 | 70 | 243 | 1.0 | 4.0 | 0.00 | 0.00 | 0.00 | 81 | 1011.9 |
| 20260505031526 | 70 | 118 | 2.0 | 4.0 | 0.00 | 0.00 | 0.00 | 81 | 1012.1 |
| 20260505031022 | 70 | 164 | 1.0 | 5.0 | 0.00 | 0.00 | 0.00 | 81 | 1012.1 |
| 20260505030519 | 70 | 163 | 3.0 | 4.0 | 0.00 | 0.00 | 0.00 | 81 | 1012.0 |
| 20260505030015 | 70 | 265 | 0.0 | 5.0 | 0.00 | 0.00 | 0.00 | 81 | 1012.1 |
| 20260505025510 | 70 | 343 | 2.0 | 5.0 | 0.00 | 0.00 | 0.00 | 80 | 1012.2 |
| 20260505025010 | 71 | 206 | 3.0 | 4.0 | 0.00 | 0.00 | 0.00 | 80 | 1011.8 |
| 20260505024506 | 71 | 230 | 2.0 | 3.0 | 0.00 | 0.00 | 0.00 | 80 | 1012.2 |
| 20260505024004 | 71 | 224 | 4.0 | 4.0 | 0.00 | 0.00 | 0.00 | 80 | 1012.0 |
| 20260505023500 | 71 | 140 | 2.0 | 6.0 | 0.00 | 0.00 | 0.00 | 79 | 1011.9 |
| 20260505022957 | 71 | 233 | 2.0 | 4.0 | 0.00 | 0.00 | 0.00 | 79 | 1012.1 |
| 20260505022455 | 71 | 173 | 0.0 | 3.0 | 0.00 | 0.00 | 0.00 | 79 | 1012.4 |
| 20260505021952 | 71 | 205 | 3.0 | 4.0 | 0.00 | 0.00 | 0.00 | 78 | 1012.2 |
| 20260505021449 | 71 | 235 | 2.0 | 6.0 | 0.00 | 0.00 | 0.00 | 78 | 1012.1 |
| 20260505020944 | 71 | 270 | 2.0 | 5.0 | 0.00 | 0.00 | 0.00 | 78 | 1011.8 |
| 20260505020439 | 71 | 297 | 2.0 | 5.0 | 0.00 | 0.00 | 0.00 | 77 | 1012.0 |
| 20260505015937 | 71 | 253 | 3.0 | 4.0 | 0.00 | 0.00 | 0.00 | 77 | 1011.8 |
| 20260505015434 | 71 | 193 | 3.0 | 5.0 | 0.00 | 0.00 | 0.00 | 76 | 1011.9 |
| 20260505014931 | 72 | 98 | 2.0 | 5.0 | 0.00 | 0.00 | 0.00 | 76 | 1011.9 |
| 20260505014428 | 72 | 193 | 5.0 | 6.0 | 0.00 | 0.00 | 0.00 | 75 | 1012.1 |
| 20260505013925 | 72 | 194 | 4.0 | 7.0 | 0.00 | 0.00 | 0.00 | 75 | 1011.5 |
| 20260505013422 | 72 | 198 | 3.0 | 5.0 | 0.00 | 0.00 | 0.00 | 74 | 1011.9 |
| 20260505012920 | 72 | 184 | 4.0 | 4.0 | 0.00 | 0.00 | 0.00 | 74 | 1011.7 |
| 20260505012418 | 73 | 232 | 3.0 | 5.0 | 0.00 | 0.00 | 0.00 | 73 | 1011.6 |
| 20260505011914 | 73 | 236 | 2.0 | 4.0 | 0.00 | 0.00 | 0.00 | 73 | 1012.0 |
| 20260505011410 | 73 | 215 | 1.0 | 5.0 | 0.00 | 0.00 | 0.00 | 73 | 1011.7 |
| 20260505010907 | 73 | 234 | 3.0 | 5.0 | 0.00 | 0.00 | 0.00 | 72 | 1011.9 |
| 20260505010403 | 73 | 269 | 3.0 | 4.0 | 0.00 | 0.00 | 0.00 | 72 | 1011.7 |
| 20260505005859 | 73 | 234 | 3.0 | 6.0 | 0.00 | 0.00 | 0.00 | 71 | 1011.8 |
| 20260505005356 | 74 | 163 | 2.0 | 6.0 | 0.00 | 0.00 | 0.00 | 70 | 1011.9 |
| 20260505004854 | 74 | 228 | 4.0 | 6.0 | 0.00 | 0.00 | 0.00 | 70 | 1011.7 |
| 20260505004349 | 74 | 186 | 4.0 | 6.0 | 0.00 | 0.00 | 0.00 | 69 | 1011.9 |
| 20260505003847 | 74 | 209 | 4.0 | 6.0 | 0.00 | 0.00 | 0.00 | 69 | 1012.0 |
| 20260505003344 | 74 | 180 | 3.0 | 6.0 | 0.00 | 0.00 | 0.00 | 69 | 1011.8 |
| 20260505002840 | 74 | 154 | 2.0 | 8.0 | 0.00 | 0.00 | 0.00 | 68 | 1011.8 |
| 20260505002337 | 75 | 205 | 5.0 | 6.0 | 0.00 | 0.00 | 0.00 | 68 | 1012.0 |
| 20260505001836 | 75 | 164 | 4.0 | 7.0 | 0.00 | 0.00 | 0.00 | 66 | 1011.8 |
| 20260505001332 | 75 | 322 | 2.0 | 5.0 | 0.00 | 0.00 | 0.00 | 66 | 1011.7 |
| 20260505000829 | 75 | 172 | 3.0 | 7.0 | 0.00 | 0.00 | 0.00 | 65 | 1011.8 |
| 20260505000327 | 75 | 164 | 4.0 | 5.0 | 0.00 | 0.00 | 0.00 | 65 | 1011.8 |
| 20260504235824 | 75 | 147 | 3.0 | 4.0 | 0.00 | 0.00 | 0.00 | 66 | 1011.8 |
| 20260504235321 | 76 | 153 | 3.0 | 11.0 | 0.00 | 0.00 | 0.00 | 65 | 1012.3 |
| 20260504234817 | 76 | 242 | 2.0 | 10.0 | 0.00 | 0.00 | 0.00 | 65 | 1012.1 |
| 20260504234315 | 76 | 132 | 3.0 | 4.0 | 0.00 | 0.00 | 0.00 | 64 | 1012.3 |
| 20260504233811 | 76 | 203 | 2.0 | 9.0 | 0.00 | 0.00 | 0.00 | 62 | 1012.3 |
| 20260504233307 | 76 | 241 | 4.0 | 9.0 | 0.00 | 0.00 | 0.00 | 63 | 1012.3 |
| 20260504232804 | 77 | 142 | 3.0 | 13.0 | 0.00 | 0.00 | 0.00 | 62 | 1012.3 |
| 20260504232301 | 77 | 185 | 10.0 | 10.0 | 0.00 | 0.00 | 0.00 | 62 | 1012.6 |
| 20260504231758 | 77 | 180 | 5.0 | 8.0 | 0.00 | 0.00 | 0.00 | 62 | 1012.6 |
| 20260504231254 | 77 | 249 | 4.0 | 8.0 | 0.00 | 0.00 | 0.00 | 60 | 1012.5 |
| 20260504230750 | 77 | 199 | 5.0 | 8.0 | 0.00 | 0.00 | 0.00 | 60 | 1012.3 |
| 20260504230248 | 77 | 107 | 6.0 | 11.0 | 0.00 | 0.00 | 0.00 | 61 | 1012.3 |
| 20260504225747 | 77 | 22 | 3.0 | 7.0 | 0.00 | 0.00 | 0.00 | 62 | 1012.8 |
| 20260504225243 | 78 | 229 | 5.0 | 8.0 | 0.00 | 0.00 | 0.00 | 60 | 1012.5 |
| 20260504224740 | 78 | 262 | 4.0 | 10.0 | 0.00 | 0.00 | 0.00 | 60 | 1012.7 |
| 20260504224237 | 78 | 178 | 2.0 | 10.0 | 0.00 | 0.00 | 0.00 | 61 | 1012.6 |
| 20260504223734 | 78 | 253 | 2.0 | 9.0 | 0.00 | 0.00 | 0.00 | 60 | 1012.7 |
| 20260504223229 | 77 | 232 | 5.0 | 6.0 | 0.00 | 0.00 | 0.00 | 60 | 1012.8 |
| 20260504222726 | 77 | 294 | 2.0 | 9.0 | 0.00 | 0.00 | 0.00 | 59 | 1012.8 |
| 20260504222223 | 78 | 219 | 2.0 | 6.0 | 0.00 | 0.00 | 0.00 | 60 | 1012.8 |
| 20260504221720 | 77 | 154 | 8.0 | 8.0 | 0.00 | 0.00 | 0.00 | 60 | 1012.6 |
| 20260504221217 | 78 | 149 | 2.0 | 12.0 | 0.00 | 0.00 | 0.00 | 59 | 1012.5 |
| 20260504220714 | 78 | 264 | 4.0 | 10.0 | 0.00 | 0.00 | 0.00 | 58 | 1012.7 |
| 20260504220211 | 78 | 210 | 5.0 | 5.0 | 0.00 | 0.00 | 0.00 | 59 | 1012.8 |
| 20260504215707 | 78 | 187 | 4.0 | 9.0 | 0.00 | 0.00 | 0.00 | 58 | 1012.9 |
| 20260504215205 | 78 | 158 | 4.0 | 8.0 | 0.00 | 0.00 | 0.00 | 58 | 1013.3 |
| 20260504214700 | 79 | 184 | 3.0 | 7.0 | 0.00 | 0.00 | 0.00 | 57 | 1013.2 |
| 20260504214157 | 79 | 202 | 1.0 | 6.0 | 0.00 | 0.00 | 0.00 | 58 | 1013.2 |
| 20260504213654 | 79 | 154 | 3.0 | 6.0 | 0.00 | 0.00 | 0.00 | 59 | 1013.3 |
| 20260504213150 | 78 | 223 | 3.0 | 10.0 | 0.00 | 0.00 | 0.00 | 58 | 1013.1 |
| 20260504212647 | 78 | 172 | 7.0 | 10.0 | 0.00 | 0.00 | 0.00 | 57 | 1013.1 |
| 20260504212144 | 78 | 181 | 9.0 | 11.0 | 0.00 | 0.00 | 0.00 | 57 | 1013.2 |
| 20260504211641 | 79 | 155 | 5.0 | 6.0 | 0.00 | 0.00 | 0.00 | 56 | 1013.4 |
| 20260504211137 | 79 | 200 | 4.0 | 8.0 | 0.00 | 0.00 | 0.00 | 57 | 1013.5 |
| 20260504210635 | 79 | 107 | 3.0 | 7.0 | 0.00 | 0.00 | 0.00 | 57 | 1013.5 |
| 20260504210131 | 80 | 304 | 6.0 | 9.0 | 0.00 | 0.00 | 0.00 | 56 | 1013.5 |
| 20260504205629 | 79 | 217 | 2.0 | 6.0 | 0.00 | 0.00 | 0.00 | 57 | 1013.6 |
| 20260504205126 | 79 | 182 | 5.0 | 13.0 | 0.00 | 0.00 | 0.00 | 56 | 1013.7 |
| 20260504204625 | 80 | 210 | 4.0 | 9.0 | 0.00 | 0.00 | 0.00 | 55 | 1013.9 |
| 20260504204123 | 80 | 192 | 2.0 | 11.0 | 0.00 | 0.00 | 0.00 | 57 | 1014.0 |
| 20260504203622 | 79 | 150 | 4.0 | 9.0 | 0.00 | 0.00 | 0.00 | 56 | 1013.5 |
| 20260504203120 | 78 | 196 | 3.0 | 5.0 | 0.00 | 0.00 | 0.00 | 56 | 1014.0 |
| 20260504202619 | 78 | 195 | 4.0 | 8.0 | 0.00 | 0.00 | 0.00 | 57 | 1013.9 |
| 20260504202116 | 78 | 150 | 4.0 | 8.0 | 0.00 | 0.00 | 0.00 | 57 | 1014.0 |
| 20260504201613 | 79 | 167 | 5.0 | 9.0 | 0.00 | 0.00 | 0.00 | 55 | 1014.2 |
| 20260504201111 | 78 | 151 | 4.0 | 7.0 | 0.00 | 0.00 | 0.00 | 59 | 1014.4 |
| 20260504200608 | 79 | 102 | 6.0 | 10.0 | 0.00 | 0.00 | 0.00 | 57 | 1014.4 |
| 20260504200104 | 79 | 206 | 4.0 | 9.0 | 0.00 | 0.00 | 0.00 | 56 | 1014.5 |
| 20260504195600 | 79 | 154 | 6.0 | 10.0 | 0.00 | 0.00 | 0.00 | 55 | 1014.7 |
| 20260504195057 | 78 | 229 | 2.0 | 8.0 | 0.00 | 0.00 | 0.00 | 55 | 1014.8 |
| 20260504194554 | 80 | 190 | 5.0 | 10.0 | 0.00 | 0.00 | 0.00 | 55 | 1014.9 |
| 20260504194049 | 79 | 223 | 3.0 | 6.0 | 0.00 | 0.00 | 0.00 | 55 | 1014.8 |
| 20260504193546 | 79 | 213 | 3.0 | 8.0 | 0.00 | 0.00 | 0.00 | 54 | 1014.9 |
| 20260504193045 | 80 | 172 | 4.0 | 11.0 | 0.00 | 0.00 | 0.00 | 56 | 1014.9 |
| 20260504192543 | 79 | 150 | 6.0 | 11.0 | 0.00 | 0.00 | 0.00 | 58 | 1014.8 |
| 20260504192040 | 78 | 262 | 3.0 | 9.0 | 0.00 | 0.00 | 0.00 | 55 | 1015.0 |
| 20260504191538 | 79 | 177 | 3.0 | 9.0 | 0.00 | 0.00 | 0.00 | 54 | 1014.9 |
| 20260504191034 | 79 | 125 | 2.0 | 9.0 | 0.00 | 0.00 | 0.00 | 55 | 1015.0 |
| 20260504190531 | 79 | 198 | 5.0 | 7.0 | 0.00 | 0.00 | 0.00 | 52 | 1015.0 |
| 20260504190026 | 77 | 237 | 2.0 | 6.0 | 0.00 | 0.00 | 0.00 | 55 | 1015.2 |
| 20260504185524 | 78 | 205 | 4.0 | 11.0 | 0.00 | 0.00 | 0.00 | 55 | 1015.2 |
| 20260504185020 | 79 | 226 | 5.0 | 7.0 | 0.00 | 0.00 | 0.00 | 55 | 1015.4 |
| 20260504184515 | 79 | 244 | 5.0 | 11.0 | 0.00 | 0.00 | 0.00 | 53 | 1015.3 |
| 20260504184011 | 78 | 168 | 3.0 | 6.0 | 0.00 | 0.00 | 0.00 | 60 | 1015.5 |
| 20260504183509 | 79 | 300 | 3.0 | 11.0 | 0.00 | 0.00 | 0.00 | 55 | 1015.6 |
| 20260504183007 | 80 | 153 | 4.0 | 9.0 | 0.00 | 0.00 | 0.00 | 53 | 1015.6 |
| 20260504182503 | 78 | 251 | 0.0 | 8.0 | 0.00 | 0.00 | 0.00 | 56 | 1015.8 |
| 20260504182000 | 78 | 173 | 11.0 | 12.0 | 0.00 | 0.00 | 0.00 | 56 | 1015.8 |
| 20260504181457 | 79 | 160 | 2.0 | 6.0 | 0.00 | 0.00 | 0.00 | 56 | 1015.6 |
| 20260504180956 | 78 | 193 | 5.0 | 9.0 | 0.00 | 0.00 | 0.00 | 55 | 1015.9 |
| 20260504180455 | 78 | 229 | 6.0 | 7.0 | 0.00 | 0.00 | 0.00 | 55 | 1015.8 |
| 20260504175952 | 79 | 248 | 2.0 | 13.0 | 0.00 | 0.00 | 0.00 | 55 | 1015.6 |
| 20260504175449 | 79 | 198 | 5.0 | 8.0 | 0.00 | 0.00 | 0.00 | 55 | 1015.9 |
| 20260504174947 | 78 | 270 | 5.0 | 10.0 | 0.00 | 0.00 | 0.00 | 54 | 1015.9 |
| 20260504174444 | 78 | 191 | 3.0 | 6.0 | 0.00 | 0.00 | 0.00 | 54 | 1016.1 |
| 20260504173941 | 78 | 237 | 6.0 | 7.0 | 0.00 | 0.00 | 0.00 | 55 | 1016.3 |
| 20260504173437 | 79 | 203 | 3.0 | 8.0 | 0.00 | 0.00 | 0.00 | 55 | 1016.1 |
| 20260504172936 | 78 | 137 | 7.0 | 11.0 | 0.00 | 0.00 | 0.00 | 55 | 1016.1 |
| 20260504172431 | 77 | 249 | 5.0 | 7.0 | 0.00 | 0.00 | 0.00 | 57 | 1016.4 |
| 20260504171928 | 78 | 287 | 5.0 | 7.0 | 0.00 | 0.00 | 0.00 | 55 | 1016.3 |
| 20260504171425 | 79 | 214 | 7.0 | 13.0 | 0.00 | 0.00 | 0.00 | 54 | 1016.4 |
| 20260504170922 | 78 | 242 | 6.0 | 8.0 | 0.00 | 0.00 | 0.00 | 55 | 1016.2 |
| 20260504170418 | 77 | 226 | 4.0 | 6.0 | 0.00 | 0.00 | 0.00 | 58 | 1016.2 |
| 20260504160337 | 76 | 215 | 4.0 | 8.0 | 0.00 | 0.00 | 0.00 | 56 | 1017.1 |
| 20260504150802 | 74 | 133 | 4.0 | 12.0 | 0.00 | 0.00 | 0.00 | 59 | 1017.3 |
| 20260504150258 | 75 | 269 | 3.0 | 8.0 | 0.00 | 0.00 | 0.00 | 59 | 1017.2 |
| 20260504141229 | 71 | 209 | 4.0 | 6.0 | 0.00 | 0.00 | 0.00 | 63 | 1017.3 |
| 20260504140725 | 70 | 209 | 1.0 | 4.0 | 0.00 | 0.00 | 0.00 | 62 | 1017.1 |
| 20260504140220 | 70 | 168 | 4.0 | 5.0 | 0.00 | 0.00 | 0.00 | 62 | 1017.2 |
| 20260504130649 | 64 | 261 | 3.0 | 4.0 | 0.00 | 0.00 | 0.00 | 75 | 1017.1 |
| 20260504130145 | 63 | 219 | 2.0 | 2.0 | 0.00 | 0.00 | 0.00 | 78 | 1017.1 |
| 20260504120110 | 56 | 331 | 0.0 | 2.0 | 0.00 | 0.00 | 0.00 | 91 | 1016.5 |
| 20260504110537 | 56 | 308 | 2.0 | 3.0 | 0.00 | 0.00 | 0.00 | 89 | 1016.7 |
| 20260504100459 | 57 | 319 | 1.0 | 2.0 | 0.00 | 0.00 | 0.00 | 86 | 1016.5 |
| 20260504081852 | 58 | 291 | 2.0 | 2.0 | 0.00 | 0.00 | 0.00 | 84 | 1017.1 |
| 20260504081349 | 58 | 302 | 2.0 | 3.0 | 0.00 | 0.00 | 0.00 | 84 | 1017.3 |
| 20260504080844 | 58 | 333 | 2.0 | 2.0 | 0.00 | 0.00 | 0.00 | 84 | 1017.3 |
| 20260504080342 | 58 | 341 | 2.0 | 2.0 | 0.00 | 0.00 | 0.00 | 84 | 1017.3 |
| 20260504070309 | 59 | 330 | 2.0 | 3.0 | 0.00 | 0.00 | 0.00 | 81 | 1017.8 |
| 20260504060229 | 60 | 323 | 1.0 | 2.0 | 0.00 | 0.00 | 0.00 | 76 | 1018.6 |